STARLINK-36645, 67707

Orbit data source: Space-Track

STARLINK-36645, 67707 is a payload satellite owned by SpaceX/Seattle (US) in SSO that was launched on Sat, 07 Feb 2026 UTC via an FALCON 9 launch vehicle from the Air Force Western Test Range (AFWTR). Payload-class satellites include a variety of spacecraft equipped with specific instruments for various scientific and technological missions. These include communications satellites like Starlink; space stations such as the ISS; scientific satellites like the Hubble; Earth observation satellites from companies like Planet Labs, Umbra, and HawkEye 360; GPS; miniature CubeSats for education and research; and military/defense satellites.

Not visible in the next 10 days
Identifier
67707, 2026-025Q
Orbit
SSO
Country
Flag of USUS
Related business
Manufacturer
SpaceX/Seattle
Mission
Operational spacecraft
Bus & Motor
STARLINK V2MO, Unknown motor
Mass
575 kg wet, ~530 kg dry
Launch date (UTC)
2026-02-07 (1 month ago)
Launch vehicle
FALCON 9
Launch site
Air Force Western Test Range (AFWTR)
Object type
Payload
Rocket body
Debris
Shape & HBR
Unknown
Radar Cross Section
RCS unknown

Expand to show TLE details & history
Last TLE update: 12 hours ago

TLE from 12 hours ago
0 STARLINK-36645
1 67707U 26025Q   26071.82172061  .00113776  00000-0  75194-3 0  9999
2 67707  97.2840 183.5629 0001521  76.6528 283.4907 15.75239365  6438
Epoch: 2026-03-12T19:43Z
TLE epoch observation values (Epoch: 2026-03-12T19:43:16.660Z)
Latitude
-0.00001°
Longitude
77.27738°
Altitude
346.88 km
Speed
7.701 km/s
True Right ascension
12h 14m 15s
True Declination
0° 00' 00"
Sunlit
Object was in full shadow at epoch
Visualization orbit readout
Latitude
Unknown
Longitude
Unknown
Altitude
Unknown
Speed
Unknown
Apparent Right ascension
Unknown
Apparent Declination
Unknown
Sunlit
N/A
Visualization observer readout
Local Sidereal Time
11:59:06
Azimuth
Unknown
Elevation
Unknown
Doppler factor
Unknown
Orbital elements
Apogee altitude
341.859 km
Perigee altitude
339.815 km
Semi-major axis
6,718.974 km
Eccentricity
0.00015
Inclination
97.284°
RAAN
183.5629°
Arg. of periapsis
76.6528°
True anomaly
283.47375°
Mean anomaly
283.4907°
Eccentric anomaly
283.48223°
Mean motion
3.94084 °/min
Orbital period
91.35 mins
BSTAR
0.00075194
Loading maneuver chart data...
Computing Atmospheric mass density...
Loading historical data...
Loading historical data...
Loading historical data...
Loading historical data...
Loading historical data...
Loading historical data...
Loading historical data...

Documentation

Showing up to 5 results
|